Weather History for Adrian, MI

Change the Weather History Date:

Friday, August 30, 2013

  Actual Average Record
Temperature  
Mean Temperature 74 °F -  
Max Temperature 88 °F 82 °F 96 °F (1953)
Min Temperature 60 °F 56 °F 32 °F (1986)
Cooling Degree Days 8    
Growing Degree Days 24 (Base 50)    
Moisture  
Dew Point 64 °F    
Average Humidity 84    
Maximum Humidity 100    
Minimum Humidity 48    
Precipitation  
Precipitation 0.00 in - - ()
Sea Level Pressure  
Sea Level Pressure 29.95 in    
Wind  
Wind Speed 2 mph (WSW)    
Max Wind Speed 10 mph    
Max Gust Speed 20 mph    
Visibility 6 miles    
Events Fog    
Averages and records for this station are not official NWS values.
T = Trace of Precipitation, MM = Missing Value Source: NWS Daily Summary

Daily Weather History Graph

Daily Weather History Graph

Search for Another Location

Airport:

Trip Planner

Search our weather history database for the weather conditions in past years. The results will help you decide how hot, cold, wet, or windy it might be!

Date:

Astronomy

Aug. 30, 2013 Rise Set
Actual Time 7:00 AM EDT 8:12 PM EDT
Civil Twilight 6:31 AM EDT 8:41 PM EDT
Nautical Twilight 5:56 AM EDT 9:15 PM EDT
Astronomical Twilight 5:20 AM EDT 9:51 PM EDT
Moon 1:35 AM EDT (8/30) 4:30 PM EDT (8/30)
Length of Visible Light 14h 09m
Length of Day
13h 12m
Waning Crescent, 29% of the Moon is Illuminated
Aug 30
Waning Crescent
Sep 5
New
Sep 12
First Quarter
Sep 19
Full
Sep 26
Last Quarter

Hourly Weather History & Observations

Time (EDT) Temp. Heat Index Dew Point Humidity Pressure Visibility Wind Dir Wind Speed Gust Speed Precip Events Conditions
12:53 AM 66.0 °F - 64.9 °F 96% 30.03 in 8.0 mi Calm Calm - N/A   Clear
1:53 AM 64.0 °F - 63.0 °F 96% 30.02 in 6.0 mi Calm Calm - N/A   Clear
2:53 AM 63.0 °F - 63.0 °F 100% 30.02 in 3.0 mi Calm Calm - N/A   Clear
3:46 AM 62.6 °F - 60.8 °F 94% 30.02 in 2.5 mi Calm Calm - N/A   Clear
3:53 AM 63.0 °F - 61.0 °F 93% 30.01 in 3.0 mi Calm Calm - N/A   Clear
4:19 AM 62.6 °F - 60.8 °F 94% 30.01 in 2.0 mi Calm Calm - N/A   Clear
4:32 AM 60.8 °F - 60.8 °F 100% 30.01 in 0.8 mi Calm Calm - N/A   Clear
4:53 AM 61.0 °F - 60.1 °F 97% 30.00 in 0.5 mi Calm Calm - N/A Fog Fog
5:03 AM 60.8 °F - 60.8 °F 100% 30.01 in 1.8 mi Calm Calm - N/A   Clear
5:11 AM 60.8 °F - 60.8 °F 100% 30.01 in 2.0 mi Calm Calm - N/A   Clear
5:23 AM 60.8 °F - 60.8 °F 100% 30.01 in 4.0 mi Calm Calm - N/A   Clear
5:40 AM 60.8 °F - 60.8 °F 100% 30.00 in 4.0 mi Calm Calm - N/A   Partly Cloudy
5:53 AM 60.1 °F - 59.0 °F 96% 30.00 in 4.0 mi Calm Calm - N/A   Partly Cloudy
6:51 AM 60.8 °F - 59.0 °F 94% 29.99 in 1.8 mi Calm Calm - N/A   Scattered Clouds
6:52 AM 60.1 °F - 59.0 °F 96% 29.99 in 1.8 mi Calm Calm - N/A   Scattered Clouds
7:03 AM 60.8 °F - 59.0 °F 94% 30.00 in 1.2 mi Calm Calm - N/A   Mostly Cloudy
7:13 AM 60.8 °F - 59.0 °F 94% 30.00 in 0.5 mi Calm Calm - N/A Fog Fog
7:20 AM 60.8 °F - 59.0 °F 94% 30.00 in 2.0 mi Calm Calm - N/A   Scattered Clouds
7:31 AM 60.8 °F - 60.8 °F 100% 30.00 in 3.0 mi Calm Calm - N/A   Partly Cloudy
7:53 AM 62.1 °F - 61.0 °F 96% 29.99 in 3.0 mi Calm Calm - N/A   Clear
8:17 AM 62.6 °F - 62.6 °F 100% 30.00 in 2.5 mi Calm Calm - N/A   Clear
8:28 AM 64.4 °F - 62.6 °F 94% 30.00 in 3.0 mi Calm Calm - N/A   Clear
8:53 AM 66.9 °F - 66.0 °F 97% 29.99 in 3.0 mi Calm Calm - N/A   Clear
9:53 AM 73.0 °F - 69.1 °F 87% 29.97 in 6.0 mi SW 6.9 mph - N/A   Clear
10:53 AM 78.1 °F - 69.1 °F 74% 29.95 in 9.0 mi SW 9.2 mph - N/A   Clear
11:53 AM 81.0 °F 84.1 °F 69.1 °F 67% 29.94 in 10.0 mi West 8.1 mph - N/A   Partly Cloudy
12:53 PM 82.9 °F 85.8 °F 68.0 °F 60% 29.93 in 10.0 mi WNW 10.4 mph 16.1 mph N/A   Mostly Cloudy
1:53 PM 84.0 °F 86.5 °F 66.9 °F 56% 29.91 in 10.0 mi West 9.2 mph - N/A   Scattered Clouds
2:53 PM 86.0 °F 88.2 °F 66.0 °F 51% 29.89 in 10.0 mi SW 9.2 mph 17.3 mph N/A   Partly Cloudy
3:53 PM 87.1 °F 89.2 °F 66.0 °F 49% 29.86 in 10.0 mi West 10.4 mph 19.6 mph N/A   Partly Cloudy
4:53 PM 87.1 °F 88.9 °F 64.9 °F 48% 29.83 in 10.0 mi WSW 10.4 mph 18.4 mph N/A   Clear
5:53 PM 87.1 °F 89.2 °F 66.0 °F 49% 29.82 in 10.0 mi West 10.4 mph - N/A   Clear
6:53 PM 84.9 °F 88.8 °F 69.1 °F 59% 29.80 in 10.0 mi WSW 4.6 mph - N/A   Clear
7:53 PM 81.0 °F 84.1 °F 69.1 °F 67% 29.80 in 10.0 mi Calm Calm - N/A   Clear
8:53 PM 78.1 °F - 69.1 °F 74% 29.80 in 10.0 mi WSW 4.6 mph - N/A   Clear
9:53 PM 78.1 °F - 69.1 °F 74% 29.79 in 10.0 mi WSW 4.6 mph - N/A   Clear
10:53 PM 77.0 °F - 69.1 °F 76% 29.77 in 10.0 mi WSW 3.5 mph - N/A   Clear
11:53 PM 77.0 °F - 70.0 °F 79% 29.76 in 10.0 mi Calm Calm - N/A   Scattered Clouds